MISRSAT-2

导读 | 星芒AI

MISRSAT-2 是一颗用于地球观测的卫星,主要用于收集高分辨率的多光谱图像,支持环境监测、土地利用分析和灾害评估等应用。该卫星搭载先进的遥感传感器,具备高精度和高稳定性的数据采集能力。MISRSAT-2 由相关航天机构研发并发射,旨在提升对地观测能力,为科学研究和政策制定提供可靠的数据支持。其轨道设计和数据传输系统优化了图像获取效率和覆盖范围,是现代遥感技术的重要组成部分。

基本信息
目录编号:
58497
目录名称:
MISRSAT-2
国际标识:
2023-187B
轨道中心:
EARTH
卫星名称:
MISRSAT-2
卫星全名:
--
卫星状态:
在轨 (已飞行740 天)
发射日期:
2023-12-04 UTC
国别 :
埃及 (EG)
星等 :
--
轨道信息
数据来源 国际轨道数据
星历时间: 2025-12-13T08:48:31+0800
9小时前
查看轨道信息
半长轴: 6999.225km
偏心率: 0.0011824
轨道倾角: 97.943°
近地点辐角 38.883°
升交点赤经 65.373°
平近点角 321.323°
近地点: 612.814km
远地点: 629.366km
周期: 97.126分钟
每日圈数: 14.826134
详细信息
使用方式:
暂无
2D轨道图
3D轨道图
轨道高度分析图
轨道倾角分析图
轨道综合分析图
查看轨道综合分析图